Hourly Data Report for September 05, 2020

WINNIPEG THE FORKS
MANITOBA
Current Station Operator: ECCC - MSC

49°53'18.008" N
97°07'46.007" W
230.00 m
5023262
71579
XWN

Download Data

Hourly Data (September 2020)
Hourly Data Report for September 5, 2020
TIME
LST
Temp Definition
°C
Dew Point Definition
°C
Rel Hum Definition
%
Precip. Amount Definition
mm

Wind Dir Definition
10's deg

Wind Spd Definition
km/h
Visibility Definition
km
Stn Press Definition
kPa
Hmdx Definition


Wind Chill Definition


Weather Definition


00:00 12.7 5.0 59 0.0 22 6   99.10     LegendNANA
01:00 12.3 5.3 62 0.0 25 6   99.10     LegendNANA
02:00 11.9 5.4 65 0.0 23 4   99.13     LegendNANA
03:00 12.5 6.6 68 0.0 26 4   99.15     LegendNANA
04:00 11.3 7.3 76 0.0 23 3   99.16     LegendNANA
05:00 11.4 6.6 73 0.0 26 3   99.21     LegendNANA
06:00 10.2 7.0 80 0.0   0   99.23     LegendNANA
07:00 11.6 6.9 73 0.0 21 3   99.26     LegendNANA
08:00 12.8 7.4 70 0.0 22 3   99.29     LegendNANA
09:00 15.3 7.9 61 0.0 21 5   99.28     LegendNANA
10:00 17.4 8.6 56 0.0 19 4   99.25     LegendNANA
11:00 19.4 8.9 51 0.0 21 2   99.23     LegendNANA
12:00 20.3 7.4 43 0.0 21 5   99.20     LegendNANA
13:00 21.4 8.4 43 0.0 19 2   99.12     LegendNANA
14:00 22.1 7.3 38 0.0 20 3   99.01     LegendNANA
15:00 21.5 7.8 41 0.0 16 2   98.93     LegendNANA
16:00 22.7 9.2 42 0.0 23 3   98.83     LegendNANA
17:00 22.8 8.5 40 0.0 8 3   98.72     LegendNANA
18:00 22.3 9.2 43 0.0 6 2   98.65     LegendNANA
19:00 20.6 10.0 51 0.0 32 1   98.61     LegendNANA
20:00 19.3 10.2 55 0.0 21 3   98.48     LegendNANA
21:00 19.6 9.1 51 0.0 20 9   98.44     LegendNANA
22:00 19.5 8.8 50 0.0 20 9   98.37     LegendNANA
23:00 19.0 9.1 53 0.0 20 8   98.27     LegendNANA

Notes on Data Quality.

Legend

  • E = Estimated
  • M = Missing
  • NA = Not Available*
  • [empty] = Indicates an unobserved value
Date modified: